#timestamp,LO_Frequency,Hit,StdDev 
1553547615.4,286046997.2,N
1553547635.2,286046997.2,N
1553547655.0,286046998.8,N
1553547655.9,286046998.8,N
1553547675.8,286046999.1,N
1553547695.6,286046998.5,N
1553547715.4,286046999.3,N
1553547735.3,286047000.8,N
1553547755.1,286047001.1,N
1553547775.9,286046998.7,N
1553547795.7,286046999.4,N
1553547815.5,286046999.6,N
1553547835.4,286046998.9,N
1553547855.2,286046998.5,N
1553547875.0,286046998.3,N
1553547875.9,286046998.3,N
1553547895.8,286046999.6,N
1553547915.6,286046999.4,N
1553547935.5,286046996.7,N
1553547955.3,286046997.7,N
1553547975.1,286046997.8,N
1553547995.9,286046997.2,N
1553548015.7,286046997.5,N
1553548035.5,286046996.9,N
1553548055.4,286046996.9,N
1553548075.2,286046996.5,Y
1553548095.1,286046998.7,P
1553548096.0,286046998.7,P
1553548115.8,286046996.8,P
1553548135.6,286046999.5,N
1553548155.5,286046998.8,N
1553548175.3,286046998.4,N
1553548195.2,286046998.9,N
1553548215.9,286046998.5,N
1553548235.7,286046999.3,N
1553548255.6,286046998.2,N
1553548275.4,286046998.9,N
1553548295.2,286046996.5,Y
1553548315.1,286047000.0,P
1553548316.0,286047000.0,N
1553548335.8,286047002.6,P
1553548355.7,286047001.9,N
1553548375.5,286047001.8,N
1553548395.3,286047004.0,N
1553548415.2,286047004.4,N
1553548435.0,286047001.5,N
1553548435.9,286047001.5,N
1553548455.7,286047001.8,N
1553548475.6,286047004.0,N
1553548495.4,286047003.9,N
1553548515.3,286047003.7,N
1553548535.1,286047001.6,N
1553548536.0,286047001.6,N
1553548555.8,286047001.5,N
1553548575.7,286047002.2,N
1553548595.5,286047000.2,N
1553548615.3,286047002.2,N
1553548635.2,286047002.2,N
1553548655.0,286047002.5,N
1553548655.9,286047002.5,N
1553548675.8,286046999.7,N
1553548695.6,286047002.3,N
1553548715.4,286047000.1,N
1553548735.3,286047004.4,Y
1553548755.1,286047001.1,P
1553548775.8,286046998.1,P
1553548795.7,286047000.9,N
1553548815.5,286046998.7,N
1553548835.4,286046996.7,N
1553548855.2,286046997.8,N
1553548875.0,286046996.8,N
1553548875.9,286046996.8,N
1553548895.8,286046999.3,N
1553548915.6,286046999.1,N
1553548935.4,286047001.2,N
1553548955.3,286047000.1,N
1553548975.1,286046998.9,N
1553548995.9,286046996.9,N
1553549015.7,286047001.2,N
1553549035.5,286047000.8,N
1553549055.4,286046999.2,N
1553549075.2,286046996.7,N
1553549095.1,286046996.8,N
1553549096.0,286046996.8,N
1553549115.8,286046998.7,N
1553549135.6,286047000.1,N
1553549155.5,286047000.4,N
1553549175.3,286047000.7,N
1553549195.1,286046999.4,N
1553549215.9,286046998.7,N
1553549235.7,286047000.4,N
1553549255.5,286047002.8,N
1553549275.4,286047001.8,N
1553549295.2,286047001.8,N
1553549315.1,286047011.9,Y
1553549316.0,286047001.7,P
1553549335.8,286047001.4,N
1553549355.6,286047003.9,P
1553549375.5,286047003.5,N
1553549395.3,286047003.0,N
1553549415.2,286047003.1,N
1553549435.9,286047003.3,N
1553549455.7,286047001.8,N
1553549475.6,286047003.1,N
1553549495.4,286047004.2,Y
1553549515.3,286047000.6,P
1553549535.1,286046998.7,N
1553549536.0,286046998.7,N
1553549555.8,286047000.6,N
1553549575.7,286047001.9,N
1553549595.5,286047001.5,N
1553549615.3,286047002.8,N
1553549635.2,286047000.2,N
1553549655.0,286047001.0,N
1553549655.9,286047001.0,N
1553549675.8,286047000.2,N
1553549695.6,286047002.4,N
1553549715.4,286047002.0,N
1553549735.3,286046998.2,N
1553549755.1,286046999.4,N
1553549775.8,286046998.6,N
1553549795.7,286046999.4,N
1553549815.5,286046996.9,N
1553549835.4,286046997.1,N
1553549855.2,286046996.5,N
1553549875.0,286046999.5,N
1553549875.9,286046999.5,N
1553549895.8,286047000.6,N
1553549915.6,286046998.1,N
1553549935.4,286046998.2,N
1553549955.3,286047000.4,N
1553549975.1,286047000.3,N
1553549995.9,286046999.7,N
1553550015.7,286047000.1,N
1553550035.5,286047002.3,N
1553550055.4,286047004.4,N
1553550075.2,286047001.9,N
1553550095.0,286047001.9,N
1553550095.9,286047001.9,N
1553550115.8,286047001.7,N
1553550135.6,286047001.9,N
1553550155.5,286047002.6,N
1553550175.3,286047001.0,N
1553550195.1,286047001.1,N
1553550215.9,286046999.7,N
1553550235.7,286047000.4,N
1553550255.5,286046999.7,N
1553550275.4,286047001.7,N
1553550295.2,286047001.8,N
1553550315.0,286047002.4,N
1553550316.0,286047002.4,N
1553550335.8,286047000.4,N
1553550355.6,286047002.6,N
1553550375.5,286047000.2,N
1553550395.3,286046998.2,N
1553550415.1,286047000.8,N
1553550435.9,286046998.1,N
1553550455.7,286046998.7,N
1553550475.6,286046998.9,N
1553550495.4,286046999.9,N
1553550515.2,286047000.5,N
1553550535.1,286047002.5,N
1553550536.0,286047002.5,N
1553550555.8,286047002.0,N
1553550575.6,286047002.8,N
1553550595.5,286047002.6,N
1553550615.3,286047002.3,N
1553550635.2,286047001.7,N
1553550655.9,286047004.3,Y
1553550675.7,286047003.4,P
1553550695.6,286047001.3,N
1553550715.4,286047001.7,N
1553550735.2,286047002.7,N
1553550755.1,286047002.2,N
1553550756.0,286047002.2,N
1553550775.8,286047002.8,Y
1553550795.7,286047000.3,P
1553550815.5,286047000.4,N
1553550835.3,286047002.2,N
1553550855.2,286046998.3,N
1553550875.0,286047000.7,N
1553550875.9,286047000.7,N
1553550895.8,286046998.4,N
1553550915.6,286046999.5,N
1553550935.4,286046996.5,N
1553550955.3,286046998.6,N
1553550975.1,286046998.2,N
1553550995.8,286046998.2,N
1553551015.7,286046998.7,N
1553551035.5,286046999.4,N
1553551055.3,286046999.1,N
1553551075.2,286046998.5,N
1553551095.0,286047001.0,N
1553551095.9,286047001.0,N
1553551115.8,286046998.1,N
1553551135.6,286047001.2,N
1553551155.4,286047000.0,N
1553551175.3,286047002.1,N
1553551195.1,286047000.6,N
